Previsão horária em Abaytikau

Hoje, 14 Abril, Quarta-feira

Tempo Temperatura Precipitação Vento Pressão Humidade
00:00 -6°C° 0 mm 3 m/s 573 mmHg 85%
01:00 -6°C° 1.2 mm 3 m/s 573 mmHg 88%
02:00 -4°C° 1.2 mm 2 m/s 573 mmHg 91%
03:00 -3°C° 1.2 mm 2 m/s 573 mmHg 93%
04:00 -3°C° 1.8 mm 2 m/s 573 mmHg 94%
05:00 -1°C° 1.8 mm 1 m/s 573 mmHg 95%
06:00 -1°C° 1.8 mm 1 m/s 573 mmHg 95%
07:00 -1°C° 1.4 mm 1 m/s 573 mmHg 95%
08:00 0°C° 1.4 mm 1 m/s 573 mmHg 95%
09:00 0°C° 1.4 mm 1 m/s 573 mmHg 96%
10:00 -1°C° 1.5 mm 2 m/s 573 mmHg 96%
11:00 -1°C° 1.5 mm 2 m/s 573 mmHg 96%
12:00 -1°C° 1.5 mm 2 m/s 573 mmHg 96%
13:00 -1°C° 0.6 mm 2 m/s 573 mmHg 94%
14:00 -1°C° 0.6 mm 2 m/s 573 mmHg 93%
15:00 -1°C° 0.6 mm 2 m/s 573 mmHg 91%
16:00 0°C° 0.1 mm 1 m/s 573 mmHg 91%
17:00 0°C° 0.1 mm 1 m/s 573 mmHg 92%
18:00 -1°C° 0.1 mm 1 m/s 573 mmHg 92%
19:00 -2°C° 0 mm 1 m/s 573 mmHg 90%
20:00 -5°C° 0 mm 2 m/s 573 mmHg 88%
21:00 -7°C° 0 mm 2 m/s 574 mmHg 87%
22:00 -7°C° 0 mm 2 m/s 573 mmHg 84%
23:00 -8°C° 0 mm 3 m/s 573 mmHg 82%

Amanhã, 15 Abril, Quinta-feira

Tempo Temperatura Precipitação Vento Pressão Humidade
00:00 -9°C° 0 mm 3 m/s 573 mmHg 79%
01:00 -9°C° 0 mm 3 m/s 573 mmHg 63%
02:00 -9°C° 0 mm 3 m/s 573 mmHg 70%
03:00 -9°C° 0 mm 3 m/s 573 mmHg 77%
04:00 -8°C° 0 mm 3 m/s 573 mmHg 72%
05:00 -8°C° 0 mm 3 m/s 573 mmHg 67%
06:00 -8°C° 0 mm 3 m/s 573 mmHg 62%
07:00 -6°C° 0 mm 3 m/s 574 mmHg 69%
08:00 -2°C° 0 mm 2 m/s 574 mmHg 73%
09:00 +1°C° 0 mm 2 m/s 574 mmHg 77%
10:00 +1°C° 0 mm 2 m/s 575 mmHg 81%
11:00 +2°C° 0 mm 2 m/s 575 mmHg 84%
12:00 +2°C° 0 mm 2 m/s 575 mmHg 88%
13:00 -4°C° 0.1 mm 2 m/s 574 mmHg 70%
14:00 -2°C° 0.1 mm 2 m/s 574 mmHg 79%
15:00 +3°C° 0.1 mm 1 m/s 575 mmHg 88%
16:00 +3°C° 0.1 mm 1 m/s 575 mmHg 88%
17:00 +2°C° 0.1 mm 1 m/s 575 mmHg 89%
18:00 +1°C° 0.1 mm 1 m/s 575 mmHg 89%
19:00 0°C° 0 mm 1 m/s 575 mmHg 87%
20:00 -1°C° 0 mm 1 m/s 575 mmHg 86%
21:00 -4°C° 0 mm 2 m/s 575 mmHg 84%
22:00 -4°C° 0 mm 2 m/s 575 mmHg 83%
23:00 -4°C° 0 mm 2 m/s 574 mmHg 82%

Depois de amanhã, 16 Abril, Sexta-feira

Tempo Temperatura Precipitação Vento Pressão Humidade
00:00 -4°C° 0 mm 2 m/s 574 mmHg 82%
01:00 -4°C° 0 mm 2 m/s 574 mmHg 81%
02:00 -5°C° 0 mm 2 m/s 574 mmHg 81%
03:00 -5°C° 0 mm 2 m/s 574 mmHg 80%
04:00 -4°C° 0 mm 2 m/s 574 mmHg 81%
05:00 -4°C° 0 mm 2 m/s 574 mmHg 81%
06:00 -4°C° 0 mm 2 m/s 574 mmHg 81%
07:00 -2°C° 0 mm 2 m/s 575 mmHg 82%
08:00 +1°C° 0 mm 1 m/s 575 mmHg 83%
09:00 +3°C° 0 mm 1 m/s 575 mmHg 84%
10:00 +3°C° 0.1 mm 1 m/s 576 mmHg 86%
11:00 +3°C° 0.1 mm 2 m/s 576 mmHg 87%
12:00 +3°C° 0.1 mm 2 m/s 576 mmHg 88%
13:00 +3°C° 0.2 mm 2 m/s 576 mmHg 88%
14:00 +3°C° 0.2 mm 2 m/s 576 mmHg 88%
15:00 +3°C° 0.2 mm 2 m/s 576 mmHg 88%
16:00 +2°C° 0.1 mm 2 m/s 576 mmHg 89%
17:00 +2°C° 0.1 mm 2 m/s 576 mmHg 90%
18:00 +1°C° 0.1 mm 2 m/s 576 mmHg 90%
19:00 -1°C° 0 mm 3 m/s 576 mmHg 90%
20:00 -2°C° 0 mm 3 m/s 576 mmHg 90%
21:00 -2°C° 0 mm 3 m/s 576 mmHg 89%
22:00 -4°C° 0 mm 3 m/s 576 mmHg 90%
23:00 -4°C° 0 mm 3 m/s 576 mmHg 90%

17 Abril, Sábado

Tempo Temperatura Precipitação Vento Pressão Humidade
00:00 -4°C° 0 mm 3 m/s 576 mmHg 90%
01:00 -4°C° 0 mm 3 m/s 576 mmHg 90%
02:00 -4°C° 0 mm 3 m/s 576 mmHg 89%
03:00 -4°C° 0 mm 3 m/s 576 mmHg 89%
04:00 -2°C° 0.3 mm 3 m/s 576 mmHg 90%
05:00 -2°C° 0.3 mm 3 m/s 576 mmHg 91%
06:00 -1°C° 0.3 mm 2 m/s 576 mmHg 91%
07:00 -1°C° 0.1 mm 2 m/s 576 mmHg 93%
08:00 +1°C° 0.1 mm 2 m/s 576 mmHg 95%
09:00 +3°C° 0.1 mm 1 m/s 577 mmHg 96%
10:00 +2°C° 0.2 mm 2 m/s 577 mmHg 96%
11:00 +2°C° 0.2 mm 2 m/s 577 mmHg 95%
12:00 +3°C° 0.2 mm 2 m/s 577 mmHg 95%
13:00 +3°C° 0.1 mm 2 m/s 577 mmHg 95%
14:00 +3°C° 0.1 mm 2 m/s 577 mmHg 94%
15:00 +3°C° 0.1 mm 2 m/s 577 mmHg 93%
16:00 +3°C° 0 mm 2 m/s 577 mmHg 94%
17:00 +2°C° 0 mm 2 m/s 577 mmHg 95%
18:00 +2°C° 0 mm 2 m/s 577 mmHg 96%
19:00 +2°C° 0 mm 2 m/s 577 mmHg 95%
20:00 +1°C° 0 mm 2 m/s 577 mmHg 94%
21:00 +1°C° 0 mm 2 m/s 577 mmHg 93%
22:00 0°C° 0.1 mm 3 m/s 577 mmHg 94%
23:00 +1°C° 0.1 mm 3 m/s 577 mmHg 95%

18 Abril, Domingo

Tempo Temperatura Precipitação Vento Pressão Humidade
00:00 +1°C° 0.1 mm 3 m/s 577 mmHg 95%
01:00 +2°C° 0.9 mm 2 m/s 577 mmHg 96%
02:00 +2°C° 0.9 mm 2 m/s 576 mmHg 96%
03:00 +2°C° 0.9 mm 2 m/s 576 mmHg 96%
04:00 +2°C° 2 mm 1 m/s 576 mmHg 97%
05:00 +2°C° 2 mm 1 m/s 576 mmHg 97%
06:00 +2°C° 2 mm 1 m/s 576 mmHg 97%
07:00 +3°C° 1.4 mm 1 m/s 576 mmHg 97%
08:00 +2°C° 1.4 mm 2 m/s 577 mmHg 96%
09:00 +3°C° 1.4 mm 2 m/s 577 mmHg 96%
10:00 +3°C° 0.1 mm 2 m/s 577 mmHg 95%
11:00 +3°C° 0.1 mm 2 m/s 577 mmHg 95%
12:00 +3°C° 0.1 mm 2 m/s 577 mmHg 94%
13:00 +4°C° 0 mm 2 m/s 577 mmHg 93%
14:00 +4°C° 0 mm 2 m/s 578 mmHg 93%
15:00 +5°C° 0 mm 2 m/s 578 mmHg 92%
16:00 +4°C° 0 mm 2 m/s 578 mmHg 93%
17:00 +4°C° 0 mm 2 m/s 578 mmHg 93%
18:00 +4°C° 0 mm 2 m/s 578 mmHg 94%
19:00 +3°C° 0 mm 2 m/s 578 mmHg 93%
20:00 +3°C° 0 mm 2 m/s 578 mmHg 91%
21:00 +2°C° 0 mm 2 m/s 578 mmHg 90%
22:00 +2°C° 0 mm 2 m/s 578 mmHg 89%
23:00 0°C° 0 mm 3 m/s 577 mmHg 89%

19 Abril, Segunda-feira

Tempo Temperatura Precipitação Vento Pressão Humidade
00:00 0°C° 0 mm 3 m/s 577 mmHg 88%
01:00 0°C° 0 mm 3 m/s 577 mmHg 88%
02:00 +1°C° 0 mm 2 m/s 577 mmHg 88%
03:00 +1°C° 0 mm 2 m/s 578 mmHg 88%
04:00 +1°C° 0 mm 2 m/s 578 mmHg 87%
05:00 +2°C° 0 mm 2 m/s 578 mmHg 87%
06:00 +2°C° 0 mm 2 m/s 578 mmHg 86%
07:00 +3°C° 0 mm 2 m/s 578 mmHg 86%
08:00 +5°C° 0 mm 1 m/s 579 mmHg 85%
09:00 +7°C° 0 mm 1 m/s 579 mmHg 85%
10:00 +7°C° 0 mm 1 m/s 579 mmHg 85%
11:00 +8°C° 0 mm 1 m/s 580 mmHg 84%
12:00 +8°C° 0 mm 1 m/s 580 mmHg 83%
13:00 +8°C° 0.1 mm 1 m/s 580 mmHg 84%
14:00 +8°C° 0.1 mm 1 m/s 580 mmHg 84%
15:00 +7°C° 0.1 mm 2 m/s 579 mmHg 84%
16:00 +7°C° 0.1 mm 2 m/s 579 mmHg 87%
17:00 +6°C° 0.1 mm 2 m/s 579 mmHg 89%
18:00 +5°C° 0.1 mm 2 m/s 579 mmHg 91%
19:00 +5°C° 0 mm 2 m/s 579 mmHg 90%
20:00 +3°C° 0 mm 3 m/s 578 mmHg 89%
21:00 +3°C° 0 mm 3 m/s 578 mmHg 88%
22:00 +3°C° 0 mm 3 m/s 578 mmHg 89%
23:00 +3°C° 0 mm 3 m/s 578 mmHg 91%
Mostrar mais

Necessitamos do seu Consentimento

A Meteoprog e os seus Fornecedores de Serviços podem armazenar e aceder a dados pessoais como cookies, identificadores do dispositivo ou outras tecnologias semelhantes existentes no seu dispositivo e processar estes dados para personalizar conteúdos e anúncios, assim como funcionalidades nas redes sociais e análise de tráfego.

  • Armazenar e/ou aceder a informações no seu dispositivo

    Os cookies, identificadores do dispositivo ou outras informações podem ser armazenados ou acedidos no seu dispositivo, para os fins acima indicados.

  • Anúncios e conteúdos personalizados, medição de anúncios e conteúdos, dados sobre o público-alvo e desenvolvimento de produtos

    Os anúncios e os conteúdos podem ser personalizados com base num perfil. Podem ser adicionados dados adicionais para uma maior personalização dos anúncios e dos conteúdos. A eficácia dos anúncios e dos conteúdos pode ser medida. Podem ser obtidas informações sobre o público que visualizou os anúncios e os conteúdos. Estes dados podem ser usados para desenvolver ou melhorar sistemas, softwares ou a experiência do utilizador.

Ao clicar em "Eu concordo”, permitirá o uso de cookies, identificadores do dispositivo e web beacons mencionados ou outras tecnologias semelhantes. As configurações do navegador do seu dispositivo podem ser alteradas.

Para certos fins, podem ser invocados interesses legítimos ao invés de consentimento. Pode ler mais informação sobre este assunto na nossa Política de Privacidade e Cookies.